Location: The Saddle
(36.8333°N, 80.3417°W)
Time: 03:50:10
(UTC-05:00)

SR - Visible Passes

Search period start: 28 January 2022 00:00
Search period end: 07 February 2022 00:00
Orbit: 582 x 872 km, 66.7° (Epoch: 27 January)

Date Brightness Start Highest point End Pass type
(mag) Time Alt. Az. Time Alt. Az. Time Alt. Az.
28 Jan ? 19:41:07 10° NW 19:45:46 47° WSW 19:50:50 10° S visible
29 Jan ? 18:51:04 10° NNW 18:55:56 81° ENE 19:01:14 10° SSE visible
29 Jan ? 20:36:33 10° W 20:37:26 10° WSW 20:38:19 10° WSW visible
30 Jan ? 19:43:53 10° WNW 19:47:49 24° WSW 19:51:59 10° SSW visible
31 Jan ? 18:53:19 10° NW 18:58:05 51° WSW 19:03:13 10° S visible
01 Feb ? 18:03:21 10° NNW 18:08:13 75° ENE 18:13:31 10° SSE visible
01 Feb ? 19:48:00 10° W 19:49:45 12° WSW 19:51:33 10° SW visible
02 Feb ? 18:56:01 10° NW 19:00:08 26° WSW 19:04:29 10° SSW visible
04 Feb ? 18:59:46 10° W 19:02:04 13° WSW 19:04:26 10° SW visible
